Weather History for KHSI - December, 2013

Change the Weather History Date:

Tuesday, December 10, 2013

  Actual Average Record
Temperature  
Mean Temperature 18 °F 28 °F  
Max Temperature 28 °F 38 °F 64 °F (1990)
Min Temperature 7 °F 19 °F -21 °F (1919)
Degree Days  
Heating Degree Days 47 36  
Month to date heating degree days 471 350  
Since 1 July heating degree days 1736 1631  
Cooling Degree Days 0 0  
Month to date cooling degree days 0 0  
Year to date cooling degree days 1158 1077  
Moisture  
Dew Point 12 °F    
Average Humidity 68    
Maximum Humidity 80    
Minimum Humidity 55    
Precipitation  
Precipitation T in 0.02 in 0.75 in (1911)
Month to date precipitation 0.13 0.34  
Year to date precipitation 25.20 26.84  
Snow  
Snow T in 0.20 in 2.00 in (1985)
Month to date snowfall 4.4 1.8  
Since 1 July snowfall 4.8 5.6  
Snow Depth 3.00 in    
Sea Level Pressure  
Sea Level Pressure 30.22 in    
Wind  
Wind Speed 8 mph (WSW)    
Max Wind Speed 20 mph    
Max Gust Speed 26 mph    
Visibility 10 miles    
Events Snow    
T = Trace of Precipitation, MM = Missing Value Source: NWS Daily Summary

Daily Weather History Graph

Daily Weather History Graph

Search for Another Location

Airport or City:

Trip Planner

Search our weather history database for the weather conditions in past years. The results will help you decide how hot, cold, wet, or windy it might be!

Date:

Astronomy

Dec. 10, 2013 Rise Set
Actual Time 7:46 AM CST 5:06 PM CST
Civil Twilight 7:15 AM CST 5:37 PM CST
Nautical Twilight 6:41 AM CST 6:11 PM CST
Astronomical Twilight 6:08 AM CST 6:44 PM CST
Moon 1:10 PM CST (12/10) 1:04 AM CST (12/10)
Length of Visible Light 10h 21m
Length of Day
9h 19m
Waxing Gibbous, 62% of the Moon is Illuminated
Dec 10
Waxing Gibbous
Dec 17
Full
Dec 25
Last Quarter
Jan 1
New
Jan 7
First Quarter

Hourly Weather History & Observations

Time (CST) Temp. Windchill Dew Point Humidity Pressure Visibility Wind Dir Wind Speed Gust Speed Precip Events Conditions
12:53 AM 15.1 °F -0.6 °F 7.0 °F 70% 30.19 in 10.0 mi West 16.1 mph - N/A   Clear
1:53 AM 15.1 °F 1.1 °F 7.0 °F 70% 30.18 in 10.0 mi WSW 12.7 mph - N/A   Clear
2:53 AM 14.0 °F 0.5 °F 6.1 °F 71% 30.19 in 10.0 mi WSW 11.5 mph - N/A   Clear
3:53 AM 18.0 °F 4.2 °F 8.1 °F 65% 30.20 in 10.0 mi West 13.8 mph - N/A   Clear
4:53 AM 17.1 °F 4.3 °F 8.1 °F 68% 30.19 in 10.0 mi WNW 11.5 mph - N/A   Partly Cloudy
5:53 AM 16.0 °F 4.4 °F 8.1 °F 71% 30.23 in 10.0 mi West 9.2 mph - N/A   Clear
6:53 AM 10.0 °F 3.6 °F 5.0 °F 80% 30.26 in 10.0 mi West 3.5 mph - N/A   Clear
7:53 AM 9.0 °F 0.6 °F 3.0 °F 77% 30.28 in 10.0 mi SSW 4.6 mph - N/A   Clear
8:53 AM 10.0 °F -0.9 °F 3.9 °F 76% 30.30 in 10.0 mi SW 6.9 mph - N/A   Clear
9:53 AM 15.1 °F 7.7 °F 6.1 °F 68% 30.28 in 10.0 mi WSW 4.6 mph - N/A   Clear
10:53 AM 19.0 °F 10.0 °F 10.0 °F 68% 30.27 in 10.0 mi SSW 6.9 mph - N/A   Clear
11:53 AM 21.9 °F 14.5 °F 12.0 °F 66% 30.23 in 10.0 mi SSW 5.8 mph - N/A   Clear
12:53 PM 27.0 °F 19.5 °F 12.9 °F 56% 30.19 in 10.0 mi SSW 6.9 mph - N/A   Clear
1:53 PM 26.1 °F 16.8 °F 16.0 °F 66% 30.16 in 10.0 mi South 9.2 mph - N/A   Clear
2:53 PM 26.1 °F 17.6 °F 15.1 °F 63% 30.14 in 10.0 mi South 8.1 mph - N/A   Clear
3:53 PM 27.0 °F 19.5 °F 16.0 °F 63% 30.13 in 10.0 mi South 6.9 mph - N/A   Overcast
4:53 PM 27.0 °F 20.5 °F 15.1 °F 61% 30.14 in 10.0 mi SSW 5.8 mph - N/A   Overcast
5:53 PM 24.1 °F 19.7 °F 16.0 °F 71% 30.18 in 10.0 mi SW 3.5 mph - N/A   Unknown
6:53 PM 25.0 °F 20.7 °F 15.1 °F 66% 30.18 in 10.0 mi SSW 3.5 mph - N/A   Clear
7:53 PM 21.9 °F - 15.1 °F 75% 30.20 in 10.0 mi Calm Calm - N/A   Mostly Cloudy
8:53 PM 23.0 °F 18.4 °F 16.0 °F 74% 30.21 in 10.0 mi West 3.5 mph - N/A   Overcast
9:53 PM 24.1 °F 18.2 °F 18.0 °F 77% 30.23 in 10.0 mi North 4.6 mph - N/A   Overcast
10:53 PM 27.0 °F 14.3 °F 21.9 °F 81% 30.28 in 7.0 mi North 17.3 mph - 0.00 in Snow Light Snow
11:53 PM 27.0 °F 14.7 °F 23.0 °F 85% 30.33 in 10.0 mi North 16.1 mph - 0.00 in   Mostly Cloudy